WetterOnline ( https://www.wetteronline.de )

Wetter aktuell Longuich

Aktuelles Wetter: Trier/Petrisberg (273m)

6-stündlich | Neueste Meldungen
Ortszeit Temperatur Wetter
Mi, 18.09. 14:00 16.6° C fast wolkenlos
Mi, 18.09. 8:00 5.9° C wolkenlos
Mi, 18.09. 2:00 10.2° C wolkenlos
Di, 17.09. 20:00 15.2° C leicht bewölkt
Di, 17.09. 14:00 19.5° C wolkenlos
Di, 17.09. 8:00 13.9° C bedeckt
Di, 17.09. 2:00 16.5° C bewölkt
Mo, 16.09. 20:00 20.1° C bedeckt
Ortszeit Temperatur Wetter
Mi, 18.09. 15:30 17.3° C wolkenlos
Mi, 18.09. 15:20 17.3° C wolkenlos
Mi, 18.09. 15:10 17.7° C wolkenlos
Mi, 18.09. 15:00 17.5° C fast wolkenlos
Mi, 18.09. 14:50 17.5° C fast wolkenlos
Mi, 18.09. 14:40 17.1° C fast wolkenlos
Mi, 18.09. 14:30 17.2° C wolkenlos
Mi, 18.09. 14:00 16.6° C fast wolkenlos
Mi, 18.09. 13:30 16.3° C leicht bewölkt
Mi, 18.09. 13:00 16.3° C wolkig
Mi, 18.09. 12:30 15.2° C leicht bewölkt
Ortszeit Relative Feuchte Sichtweite
Mi, 18.09. 14:00 40% 65 km
Mi, 18.09. 8:00 89% 65 km
Mi, 18.09. 2:00 68% 70 km
Di, 17.09. 20:00 54% 70 km
Di, 17.09. 14:00 43% 70 km
Di, 17.09. 8:00 74% 70 km
Di, 17.09. 2:00 77% 45 km
Mo, 16.09. 20:00 55% 70 km
Ortszeit Relative Feuchte Sichtweite
Mi, 18.09. 15:30 40% 70 km
Mi, 18.09. 15:20 40% -
Mi, 18.09. 15:10 39% -
Mi, 18.09. 15:00 38% 70 km
Mi, 18.09. 14:50 38% -
Mi, 18.09. 14:40 40% -
Mi, 18.09. 14:30 41% 70 km
Mi, 18.09. 14:00 40% 65 km
Mi, 18.09. 13:30 43% 70 km
Mi, 18.09. 13:00 46% 70 km
Mi, 18.09. 12:30 50% 70 km
Ortszeit Niederschlagsmenge Niederschlagsart
Mi, 18.09. 14:00 0.0 l/m2 in 6 Std. -
Mi, 18.09. 8:00 0.0 l/m2 in 12 Std. -
Mi, 18.09. 2:00 0.0 l/m2 in 6 Std. -
Di, 17.09. 20:00 0.0 l/m2 in 12 Std. -
Di, 17.09. 14:00 0.0 l/m2 in 6 Std. -
Di, 17.09. 8:00 0.1 l/m2 in 12 Std. -
Di, 17.09. 2:00 0.1 l/m2 in 6 Std. Regen
Mo, 16.09. 20:00 0.0 l/m2 in 12 Std. -
Ortszeit Niederschlagsmenge Niederschlagsart
Mi, 18.09. 15:30 0.0 l/m2 in 1 Std. -
Mi, 18.09. 15:20 keine Meldung -
Mi, 18.09. 15:10 keine Meldung -
Mi, 18.09. 15:00 0.0 l/m2 in 1 Std. -
Mi, 18.09. 14:50 keine Meldung -
Mi, 18.09. 14:40 keine Meldung -
Mi, 18.09. 14:30 0.0 l/m2 in 1 Std. -
Mi, 18.09. 14:00 0.0 l/m2 in 1 Std. -
Mi, 18.09. 13:30 0.0 l/m2 in 1 Std. -
Mi, 18.09. 13:00 0.0 l/m2 in 1 Std. -
Mi, 18.09. 12:30 0.0 l/m2 in 1 Std. -
Ortszeit Stärke Spitze Richtung
km/h Bft. km/h Grad Sektor
Mi, 18.09. 14:00 18 3 36 20° N
Mi, 18.09. 8:00 6 1 24 20° N
Mi, 18.09. 2:00 17 3 28 20° N
Di, 17.09. 20:00 9 2 31 340° N
Di, 17.09. 14:00 9 2 22 290° W
Di, 17.09. 8:00 4 1 29 80° O
Di, 17.09. 2:00 11 2 26 30° NO
Mo, 16.09. 20:00 6 1 20 350° N
Ortszeit Stärke Spitze Richtung
km/h Bft. km/h Grad Sektor
Mi, 18.09. 15:30 19 3 31 40° NO
Mi, 18.09. 15:20 19 3 - 40° NO
Mi, 18.09. 15:10 17 3 - 20° N
Mi, 18.09. 15:00 17 3 37 30° NO
Mi, 18.09. 14:50 17 3 - 30° NO
Mi, 18.09. 14:40 18 3 - 30° NO
Mi, 18.09. 14:30 20 4 37 20° N
Mi, 18.09. 14:00 18 3 36 20° N
Mi, 18.09. 13:30 17 3 31 40° NO
Mi, 18.09. 13:00 18 3 32 30° NO
Mi, 18.09. 12:30 19 3 31 30° NO
Ortszeit Untergrenze Bedeckung Gattung
total tief tief mittel hoch
Mi, 18.09. 14:00 8400 m 1/8 0/8 - - -
Mi, 18.09. 8:00 - 0/8 0/8 - - -
Mi, 18.09. 2:00 - 0/8 0/8 - - -
Di, 17.09. 20:00 8100 m 5/8 0/8 - - -
Di, 17.09. 14:00 - 0/8 0/8 - - -
Di, 17.09. 8:00 930 m 8/8 8/8 - - -
Di, 17.09. 2:00 540 m 7/8 7/8 - - -
Mo, 16.09. 20:00 2400 m 8/8 8/8 - - -
Ortszeit Bedeckungsgrad in Achtel und Wolkenuntergrenze
Mi, 18.09. 15:30 keine Wolken
Mi, 18.09. 15:20 keine Wolken
Mi, 18.09. 15:10 keine Wolken
Mi, 18.09. 15:00 1(9000m)
Mi, 18.09. 14:50 1(9000m)
Mi, 18.09. 14:40 2(9000m)
Mi, 18.09. 14:30 keine Wolken
Mi, 18.09. 14:00 1(8400m)
Mi, 18.09. 13:30 1(1170m) 5(8400m)
Mi, 18.09. 13:00 2(1140m) 7(8400m)
Mi, 18.09. 12:30 2(1020m) 3(8400m)
Ortszeit Luftdruck NN (hPa) Tendenz (hPa in 3 Std.)
Mi, 18.09. 14:00 1026 - 0,7
Mi, 18.09. 8:00 1027 + 0,9
Mi, 18.09. 2:00 1025 + 1,2
Di, 17.09. 20:00 1022 + 0,8
Di, 17.09. 14:00 1021 - 0,5
Di, 17.09. 8:00 1021 + 0,2
Di, 17.09. 2:00 1020 + 0,4
Mo, 16.09. 20:00 1019 + 0,3
Ortszeit Luftdruck NN (hPa) Tendenz (hPa in 3 Std.)
Mi, 18.09. 15:30 1025 - 1,0
Mi, 18.09. 15:20 1025 keine Meldung
Mi, 18.09. 15:10 1025 keine Meldung
Mi, 18.09. 15:00 1025 - 0,9
Mi, 18.09. 14:50 1025 keine Meldung
Mi, 18.09. 14:40 1026 keine Meldung
Mi, 18.09. 14:30 1026 - 0,8
Mi, 18.09. 14:00 1026 - 0,7
Mi, 18.09. 13:30 1026 - 0,5
Mi, 18.09. 13:00 1026 - 0,3
Mi, 18.09. 12:30 1027 + 0,1
Ortszeit Schneehöhe (cm)
Mi, 18.09. 14:00 -
Mi, 18.09. 8:00 -
Mi, 18.09. 2:00 -
Di, 17.09. 20:00 -
Di, 17.09. 14:00 -
Di, 17.09. 8:00 -
Di, 17.09. 2:00 -
Mo, 16.09. 20:00 -
Ortszeit Schneehöhe (cm)
Mi, 18.09. 15:30 -
Mi, 18.09. 15:20 -
Mi, 18.09. 15:10 -
Mi, 18.09. 15:00 -
Mi, 18.09. 14:50 -
Mi, 18.09. 14:40 -
Mi, 18.09. 14:30 -
Mi, 18.09. 14:00 -
Mi, 18.09. 13:30 -
Mi, 18.09. 13:00 -
Mi, 18.09. 12:30 -
Link zu dieser Seite / Seite empfehlen

Das Wetter in ...